Skip Page Navigation
NASA JPL Caltech
NASA Logo - Jet Propulsion Laboratory + View the NASA Portal
+ Center for Near-Earth Object Studies
JPL Home Earth Solar System Stars & Galaxies Technology
JPL Solar System Dynamics
BODIES ORBITS EPHEMERIDES TOOLS PHYSICAL DATA DISCOVERY FAQ SITE MAP
JPL Small-Body Database Browser
Search: [ help ]  
143 Adria (A875 DA)
Classification: Main-belt Asteroid          SPK-ID: 2000143
Ephemeris | Orbit Diagram | Orbital Elements | Mission Design | Physical Parameters | Discovery Circumstances ]

[ hide orbit diagram ]

For accurate long-term ephemerides, please instead use our Horizons system.This orbit viewer was implemented using two-body methods, and hence should not be used for determining accurate long-term trajectories (over several years or decades) or planetary encounter circumstances.


[ revert to old Java-based viewer ]

Orbital Elements at Epoch 2459000.5 (2020-May-31.0) TDB
Reference: JPL 47 (heliocentric ecliptic J2000)
 Element Value Uncertainty (1-sigma)   Units 
e .07415143249555943 3.2267e-08  
a 2.760501856279512 8.8817e-09 au
q 2.555806689229735 8.731e-08 au
i 11.44438025968624 3.7311e-06 deg
node 332.980555477103 1.6915e-05 deg
peri 252.34115768 3.0936e-05 deg
M 167.1293037092527 2.7248e-05 deg
tp 2458222.766877676473
(2018-Apr-14.26687768)
0.00012605 TDB
period 1675.253338717579
4.59
8.085e-06
2.214e-08
d
yr
n .214892871233185 1.0371e-09 deg/d
Q 2.965197023329289 9.5403e-09 au
  Orbit Determination Parameters
   # obs. used (total)      2756  
   data-arc span      51062 days (139.80 yr)  
   first obs. used      1880-04-13  
   last obs. used      2020-02-01  
   planetary ephem.      DE431  
   SB-pert. ephem.      SB431-N16  
   condition code      0  
   norm. resid. RMS      .42035  
   source      ORB  
   producer      Otto Matic  
   solution date      2020-Feb-22 15:18:14  

Additional Information
 Earth MOID = 1.57661 au 
 Jupiter MOID = 2.10358 au 
 T_jup = 3.309 
[ show covariance matrix ]

Ephemeris | Orbit Diagram | Orbital Elements | Mission Design | Physical Parameters | Discovery Circumstances ]

Physical Parameter Table
Parameter Symbol Value Units Sigma Reference Notes
absolute magnitude H 9.1   n/a MPO502154 IRAS observations used: 23
diameter diameter 95.377 km 0.698 urn:nasa:pds:neowise_diameters_albedos::2.0[mainbelt] (http://adsabs.harvard.edu/abs/2012ApJ...759L...8M)  
rotation period rot_per 22.005 h n/a LCDB (Rev. 2019-August); Warner et al., 2009 Published Reference List:
[Behrend, R. (2005) Observatoire de Geneve web site, http://obswww.unige.ch/~behrend/page_cou.html]
[Warner, B.D. (2007) Minor Planet Bull. 34, 32-37.]
[Pilcher, F. (2008) Minor Planet Bull. 35, 135-138.]
geometric albedo albedo 0.044   0.007 urn:nasa:pds:neowise_diameters_albedos::2.0[mainbelt] (http://adsabs.harvard.edu/abs/2012ApJ...759L...8M)  
B-V BV 0.738   0.026 EAR-A-5-DDR-UBV-MEAN-VALUES-V1.2 #obs=2; phase (min.=3.57, mean=3.79, max.=4.01) deg.
U-B UB 0.336   0.021 EAR-A-5-DDR-UBV-MEAN-VALUES-V1.2 #obs=2; phase (min.=3.57, mean=3.79, max.=4.01) deg.
Tholen spectral type spec_T C   n/a EAR-A-5-DDR-TAXONOMY-V4.0 used 2 color indices
SMASSII spectral type spec_B Xc   n/a EAR-A-5-DDR-TAXONOMY-V4.0 based on a high-resolution spectrum by Xu et al. (1995) or Bus and Binzel (2002)

143 Adria (A875 DA)          Discovered 1875-Feb-23 by Palisa, J. at Pola
Reference: DISCOVERY.DBLast Updated: 2003-08-29

Alternate Designations
 A875 DA = 1960 WK1 
Ephemeris | Orbit Diagram | Orbital Elements | Mission Design | Physical Parameters | Discovery Circumstances ]
ABOUT SSD CREDITS/AWARDS PRIVACY/COPYRIGHT GLOSSARY LINKS
FirstGov 2020-Jul-13 02:42 UT
(server date/time)  
NASA Home Page
Site Manager:   Ryan S. Park
Webmaster  Alan B. Chamberlin